Flag for U.S.A. Weather past 2 weeks in Naples, Florida, U.S.A.

Now
68 °F

Passing clouds.


Feels Like: 68 °F
Forecast: 67 / 81 °F
Wind: 7 mph from Northeast

Location: Naples Municipal

Current Time: Oct 25, 2014 at 4:47:54 AM

Latest Report: Oct 25, 2014 at 3:53 AM


Visibility: 10 mi

Pressure: 29.89 "Hg

Humidity: 70%

Dew point: 58 °F

Location of NaplesLocation

Historic Weather in Naples — Graph

°F

Naples temperature yesterday

Maximum temperature yesterday: 86 °F (at 1:53 PM)
Minimum temperature yesterday: 69 °F (at 5:53 AM)
Average temperature yesterday: 76 °F

Past Weeks' High & Low Weather Summary

 TemperatureHumidityPressure
High91 °F (Oct 11, 2:53 PM)96% (Oct 15, 5:53 AM)30.05 "Hg (Oct 15, 5:53 AM)
Low63 °F (Oct 18, 6:53 AM)45% (Oct 10, 4:53 PM)29.82 "Hg (Oct 24, 3:53 PM)
Average78 °F74%29.95 "Hg
* Reported Oct 10 3:53 AM — Oct 25 3:53 AM, Naples, Weather by CustomWeather, © 2014

Note: Actual official high and low records may vary slightly from our data, if they occured in-between our weather recording intervals... More about our weather records

Advertising

Naples weather history for previous 24 hours

 ConditionsComfort  
Time TempWeatherWind HumidityBarometerVisibility
3:53 AM
Oct 25
68 °FPassing clouds.7 mph70%29.89 "Hg10 mi
2:53 AM69 °FClear.6 mph68%29.90 "Hg10 mi
1:53 AM69 °FClear.7 mph68%29.91 "Hg10 mi
12:53 AM70 °FClear.8 mph68%29.92 "Hg10 mi
11:53 PM
Oct 24
70 °FClear.7 mph71%29.92 "Hg10 mi
10:53 PM71 °FClear.12 mph71%29.91 "Hg10 mi
9:53 PM73 °FClear.10 mph71%29.89 "Hg10 mi
8:53 PM74 °FClear.6 mph69%29.87 "Hg10 mi
7:53 PM75 °FClear.7 mph66%29.85 "Hg10 mi
6:53 PM78 °FPassing clouds.10 mph62%29.83 "Hg10 mi
5:53 PM82 °FSunny.15 mph53%29.82 "Hg10 mi
4:53 PM83 °FSunny.10 mph53%29.83 "Hg10 mi
3:53 PM85 °FScattered clouds.13 mph50%29.82 "Hg10 mi
2:53 PM86 °FScattered clouds.16 mph51%29.83 "Hg10 mi
1:53 PM86 °FScattered clouds.20 mph53%29.85 "Hg10 mi
12:53 PM84 °FPassing clouds.17 mph55%29.88 "Hg10 mi
11:53 AM83 °FSunny.15 mph57%29.90 "Hg10 mi
10:53 AM80 °FSunny.21 mph58%29.90 "Hg10 mi
9:53 AM76 °FSunny.10 mph64%29.91 "Hg10 mi
8:53 AM72 °FSunny.10 mph68%29.88 "Hg10 mi
7:53 AM70 °FClear.9 mph71%29.88 "Hg10 mi
6:53 AM70 °FClear.13 mph71%29.86 "Hg10 mi
5:53 AM69 °FClear.9 mph73%29.85 "Hg10 mi
4:53 AM70 °FClear.10 mph71%29.85 "Hg10 mi
Weather by CustomWeather, © 2014

See weather overviewHow to use our weather pages